When you browse on this site, cookies collect data to enhance your experience and personalize the content and advertising you see.
Visit our Privacy Policy to learn more. By continuing to use the site, you agree to this use of cookies and data.
  • In Belgium
  • List of Countries
  • For 7 days
  • Water Temperature
  • Satellite Maps
  • Weather Map
  • Weather Widgets
  • user-avatar
    Login

    Hourly Weather Kanchanaburi

    Today, 21 November, Wednesday

    Time Temperature Precipitation Wind Pressure Humidity
    00:00 +23°C° 0.1 mm 0 mps 732 mmHg 92%
    01:00 +22°C° 0 mm 0 mps 732 mmHg 92%
    02:00 +22°C° 0.1 mm 0 mps 732 mmHg 93%
    03:00 +22°C° 0.1 mm 0 mps 732 mmHg 93%
    04:00 +22°C° 0.1 mm 0 mps 732 mmHg 93%
    05:00 +22°C° 0 mm 0 mps 732 mmHg 93%
    06:00 +22°C° 0 mm 0 mps 732 mmHg 92%
    07:00 +23°C° 0 mm 0 mps 732 mmHg 91%
    08:00 +25°C° 0 mm 0 mps 733 mmHg 81%
    09:00 +27°C° 0 mm 0 mps 733 mmHg 72%
    10:00 +30°C° 0 mm 0 mps 733 mmHg 62%
    11:00 +33°C° 0 mm 1 mps 732 mmHg 58%
    12:00 +34°C° 0 mm 1 mps 732 mmHg 54%
    13:00 +35°C° 0 mm 1 mps 732 mmHg 50%
    14:00 +34°C° 0.1 mm 1 mps 731 mmHg 55%
    15:00 +33°C° 0.1 mm 1 mps 731 mmHg 59%
    16:00 +32°C° 0.1 mm 2 mps 730 mmHg 64%
    17:00 +30°C° 0.2 mm 1 mps 730 mmHg 72%
    18:00 +28°C° 0.2 mm 1 mps 730 mmHg 80%
    19:00 +24°C° 0.2 mm 0 mps 731 mmHg 88%
    20:00 +24°C° 0 mm 0 mps 731 mmHg 89%
    21:00 +24°C° 0 mm 0 mps 732 mmHg 90%
    22:00 +23°C° 0 mm 0 mps 732 mmHg 92%
    23:00 +25°C° 0 mm 1 mps 732 mmHg 92%

    Tomorrow, 22 November, Thursday

    Time Temperature Precipitation Wind Pressure Humidity
    00:00 +25°C° 0 mm 1 mps 732 mmHg 93%
    01:00 +25°C° 0 mm 1 mps 732 mmHg 93%
    02:00 +24°C° 0 mm 1 mps 732 mmHg 93%
    03:00 +24°C° 0 mm 1 mps 731 mmHg 93%
    04:00 +24°C° 0 mm 1 mps 731 mmHg 93%
    05:00 +24°C° 0 mm 1 mps 732 mmHg 92%
    06:00 +22°C° 0 mm 0 mps 732 mmHg 92%
    07:00 +22°C° 0 mm 0 mps 732 mmHg 91%
    08:00 +27°C° 0 mm 1 mps 733 mmHg 82%
    09:00 +29°C° 0 mm 1 mps 733 mmHg 73%
    10:00 +31°C° 0 mm 1 mps 734 mmHg 63%
    11:00 +31°C° 0.3 mm 2 mps 733 mmHg 64%
    12:00 +31°C° 0.3 mm 2 mps 733 mmHg 65%
    13:00 +31°C° 0.3 mm 2 mps 732 mmHg 65%
    14:00 +31°C° 0.5 mm 2 mps 732 mmHg 68%
    15:00 +30°C° 0.5 mm 2 mps 731 mmHg 71%
    16:00 +30°C° 0.5 mm 2 mps 731 mmHg 74%
    17:00 +28°C° 0.3 mm 1 mps 731 mmHg 79%
    18:00 +27°C° 0.3 mm 1 mps 732 mmHg 85%
    19:00 +25°C° 0.3 mm 1 mps 732 mmHg 90%
    20:00 +25°C° 0 mm 1 mps 732 mmHg 91%
    21:00 +25°C° 0 mm 1 mps 733 mmHg 91%
    22:00 +24°C° 0 mm 1 mps 733 mmHg 91%
    23:00 +24°C° 0 mm 1 mps 733 mmHg 91%

    Day after tomorrow, 23 November, Friday

    Time Temperature Precipitation Wind Pressure Humidity
    00:00 +24°C° 0 mm 1 mps 733 mmHg 91%
    01:00 +24°C° 0 mm 1 mps 733 mmHg 91%
    02:00 +24°C° 0 mm 1 mps 733 mmHg 92%
    03:00 +24°C° 0 mm 1 mps 732 mmHg 92%
    04:00 +24°C° 0 mm 1 mps 732 mmHg 92%
    05:00 +24°C° 0 mm 1 mps 732 mmHg 93%
    06:00 +24°C° 0 mm 1 mps 733 mmHg 93%
    07:00 +23°C° 0 mm 1 mps 733 mmHg 93%
    08:00 +25°C° 0 mm 2 mps 734 mmHg 83%
    09:00 +27°C° 0 mm 2 mps 734 mmHg 73%
    10:00 +29°C° 0 mm 3 mps 735 mmHg 62%
    11:00 +30°C° 0 mm 3 mps 734 mmHg 60%
    12:00 +30°C° 0 mm 3 mps 734 mmHg 57%
    13:00 +31°C° 0 mm 3 mps 733 mmHg 54%
    14:00 +31°C° 0 mm 3 mps 732 mmHg 56%
    15:00 +30°C° 0 mm 2 mps 732 mmHg 58%
    16:00 +30°C° 0 mm 2 mps 731 mmHg 59%
    17:00 +28°C° 0 mm 2 mps 731 mmHg 67%
    18:00 +26°C° 0 mm 1 mps 732 mmHg 75%
    19:00 +24°C° 0 mm 1 mps 732 mmHg 83%
    20:00 +24°C° 0 mm 1 mps 733 mmHg 85%
    21:00 +24°C° 0 mm 1 mps 733 mmHg 86%
    22:00 +23°C° 0 mm 1 mps 734 mmHg 88%
    23:00 +23°C° 0 mm 1 mps 734 mmHg 88%

    24 November, Saturday

    Time Temperature Precipitation Wind Pressure Humidity
    00:00 +23°C° 0 mm 1 mps 734 mmHg 88%
    01:00 +23°C° 0 mm 1 mps 733 mmHg 87%
    02:00 +22°C° 0 mm 1 mps 733 mmHg 87%
    03:00 +22°C° 0 mm 1 mps 732 mmHg 87%
    04:00 +22°C° 0 mm 1 mps 732 mmHg 86%
    05:00 +22°C° 0 mm 1 mps 732 mmHg 86%
    06:00 +22°C° 0 mm 1 mps 732 mmHg 85%
    07:00 +21°C° 0 mm 0 mps 733 mmHg 85%
    08:00 +25°C° 0 mm 1 mps 733 mmHg 75%
    09:00 +28°C° 0 mm 1 mps 734 mmHg 65%
    10:00 +30°C° 0 mm 1 mps 734 mmHg 55%
    11:00 +31°C° 0 mm 1 mps 733 mmHg 53%
    12:00 +32°C° 0 mm 1 mps 733 mmHg 51%
    13:00 +33°C° 0 mm 1 mps 732 mmHg 49%
    14:00 +32°C° 0 mm 1 mps 732 mmHg 53%
    15:00 +31°C° 0 mm 1 mps 731 mmHg 56%
    16:00 +31°C° 0 mm 1 mps 731 mmHg 60%
    17:00 +29°C° 0 mm 1 mps 731 mmHg 68%
    18:00 +27°C° 0 mm 1 mps 731 mmHg 75%
    19:00 +23°C° 0 mm 0 mps 731 mmHg 83%
    20:00 +23°C° 0 mm 0 mps 732 mmHg 85%
    21:00 +23°C° 0 mm 0 mps 732 mmHg 87%
    22:00 +22°C° 0 mm 0 mps 733 mmHg 89%
    23:00 +22°C° 0 mm 0 mps 733 mmHg 90%

    25 November, Sunday

    Time Temperature Precipitation Wind Pressure Humidity
    00:00 +22°C° 0 mm 0 mps 732 mmHg 91%
    01:00 +23°C° 0 mm 1 mps 732 mmHg 91%
    02:00 +23°C° 0 mm 1 mps 731 mmHg 92%
    03:00 +23°C° 0 mm 1 mps 731 mmHg 92%
    04:00 +23°C° 0 mm 1 mps 730 mmHg 92%
    05:00 +21°C° 0 mm 0 mps 731 mmHg 92%
    06:00 +21°C° 0 mm 0 mps 731 mmHg 91%
    07:00 +21°C° 0 mm 0 mps 732 mmHg 90%
    08:00 +25°C° 0 mm 1 mps 732 mmHg 81%
    09:00 +28°C° 0 mm 1 mps 733 mmHg 72%
    10:00 +30°C° 0 mm 1 mps 733 mmHg 63%
    11:00 +31°C° 0 mm 1 mps 732 mmHg 60%
    12:00 +31°C° 0 mm 1 mps 732 mmHg 57%
    13:00 +32°C° 0 mm 1 mps 731 mmHg 54%
    14:00 +32°C° 0 mm 1 mps 730 mmHg 57%
    15:00 +31°C° 0 mm 1 mps 730 mmHg 60%
    16:00 +30°C° 0 mm 1 mps 729 mmHg 63%
    17:00 +29°C° 0.2 mm 1 mps 730 mmHg 72%
    18:00 +27°C° 0.2 mm 1 mps 730 mmHg 81%
    19:00 +23°C° 0.2 mm 0 mps 731 mmHg 89%
    20:00 +23°C° 0.1 mm 0 mps 731 mmHg 90%
    21:00 +22°C° 0.1 mm 0 mps 732 mmHg 91%
    22:00 +22°C° 0.1 mm 0 mps 732 mmHg 92%
    23:00 +22°C° 0 mm 0 mps 732 mmHg 92%

    26 November, Monday

    Time Temperature Precipitation Wind Pressure Humidity
    00:00 +22°C° 0 mm 0 mps 732 mmHg 93%
    01:00 +21°C° 0 mm 0 mps 731 mmHg 93%
    02:00 +21°C° 0 mm 0 mps 731 mmHg 93%
    03:00 +21°C° 0 mm 0 mps 731 mmHg 93%
    04:00 +21°C° 0 mm 0 mps 730 mmHg 93%
    05:00 +21°C° 0 mm 0 mps 731 mmHg 92%
    06:00 +21°C° 0 mm 0 mps 731 mmHg 92%
    07:00 +21°C° 0 mm 0 mps 732 mmHg 91%
    08:00 +25°C° 0 mm 1 mps 732 mmHg 82%
    09:00 +27°C° 0 mm 1 mps 733 mmHg 72%
    10:00 +29°C° 0 mm 1 mps 733 mmHg 63%
    11:00 +30°C° 0 mm 2 mps 733 mmHg 60%
    12:00 +31°C° 0 mm 2 mps 732 mmHg 57%
    13:00 +31°C° 0 mm 2 mps 732 mmHg 55%
    14:00 +31°C° 0.1 mm 2 mps 731 mmHg 57%
    15:00 +30°C° 0.1 mm 2 mps 731 mmHg 60%
    16:00 +30°C° 0.1 mm 2 mps 730 mmHg 62%
    17:00 +28°C° 0 mm 2 mps 731 mmHg 68%
    18:00 +26°C° 0 mm 1 mps 731 mmHg 75%
    19:00 +25°C° 0 mm 1 mps 732 mmHg 81%
    20:00 +24°C° 0 mm 1 mps 732 mmHg 83%
    21:00 +24°C° 0 mm 1 mps 733 mmHg 85%
    22:00 +23°C° 0 mm 1 mps 733 mmHg 87%
    23:00 +23°C° 0 mm 1 mps 733 mmHg 87%
    Show more